Wetbulb
42.13 37.90 35.83 37.79 37.74 38.43 36.59 35.43 34.50 35.32 39.02 37.98 36.97 37.47 40.27 41.46 39.50 39.64 40.60 40.89 41.78 42.67 45.69 47.21 50.24 54.55 56.69 57.60 59.17 62.27 62.54 62.71 62.72 62.73 63.56 63.56 63.31 63.88 64.25 64.37 63.79 63.62 62.93 62.07
38.94 35.66 40.56 41.71 40.53 38.92 36.42 34.05 33.36 35.41 38.51 37.22 35.81 36.73 39.65 40.28 40.50 41.01 41.26 41.19 41.98 41.85 44.01 45.08 46.33 47.90 52.33 55.24 57.38 59.60 62.98 62.90 62.87 62.91 62.95 62.01 63.41 63.51 64.19 64.40 64.02 63.61 63.27 62.53
36.09 38.47 42.60 41.23 38.46 37.28 35.53 33.86 33.01 34.63 36.66 35.86 32.26 32.25 35.07 40.01 40.94 41.21 41.94 42.08 42.16 42.17 43.33 43.24 44.45 44.15 44.64 45.57 46.22 51.07 57.94 62.52 63.58 63.39 62.71 61.91 63.08 62.88 62.49 62.86 63.28 63.52 63.53 63.19
38.17 41.12 40.63 38.66 37.56 38.02 33.97 38.19 37.01 35.68 32.36 28.51 31.59 25.13 31.27 34.90 37.86 39.05 40.37 40.28 41.16 41.94 42.30 42.34 43.22 44.54 44.86 45.72 46.20 46.34 46.85 48.19 54.99 62.67 62.44 61.80 61.51 60.86 61.97 62.56 63.30 63.34 63.33 63.00
36.18 37.24 37.50 36.91 38.79 39.16 36.10 38.72 37.03 34.99 32.99 30.85 29.01 26.69 30.54 33.52 34.60 38.13 39.00 39.19 40.19 40.45 41.73 42.90 43.81 46.08 46.40 47.11 47.61 47.45 45.74 45.34 46.56 52.30 61.25 61.12 61.04 61.37 61.47 62.35 61.80 62.10 62.01 62.17
36.88 39.60 39.17 39.12 38.80 39.78 39.42 36.79 36.13 33.24 31.66 24.40 28.07 27.96 27.65 32.68 35.48 35.38 37.73 39.44 40.56 40.40 41.55 42.41 44.06 45.56 45.64 46.15 47.50 47.76 44.38 44.22 46.26 49.71 56.04 59.36 58.95 59.70 59.49 59.46 60.44 60.82 60.62 60.57
34.59 35.45 37.82 39.17 36.39 38.08 37.19 32.44 25.28 23.69 22.85 22.65 25.94 26.13 30.72 35.09 36.28 37.99 38.62 39.69 39.55 40.40 40.85 41.97 42.50 43.27 44.04 44.79 46.75 49.98 49.73 47.26 48.51 51.56 53.14 54.56 56.13 59.39 59.11 58.39 59.05 59.49 59.56 58.95
28.73 27.46 34.99 38.00 36.75 34.13 33.20 32.36 24.24 17.53 20.12 22.53 26.03 25.26 32.42 36.98 36.63 39.24 40.82 40.54 40.37 40.84 41.43 41.58 42.56 42.57 42.94 43.82 45.11 47.02 49.33 49.71 50.40 50.90 51.36 52.16 53.04 53.75 55.98 56.34 56.43 56.13 56.31 56.53
29.48 29.70 36.17 36.86 37.34 38.31 33.32 29.86 34.75 26.76 17.54 21.29 24.97 29.39 35.32 35.94 35.75 37.89 39.36 39.70 39.33 40.08 40.66 41.02 41.43 41.93 41.59 42.03 43.20 44.23 44.87 45.43 47.99 49.13 48.00 48.24 49.92 50.73 50.07 50.85 51.45 50.51 50.34 49.92
34.19 27.96 34.14 35.04 37.01 36.76 34.83 36.86 28.91 27.27 15.60 14.54 22.97 24.76 28.77 32.43 34.35 35.82 38.13 38.19 38.90 39.64 39.90 40.42 40.61 40.73 40.88 41.06 41.50 42.33 42.65 42.68 43.10 43.80 44.06 44.06 44.23 44.64 44.55 45.33 45.10 45.04 45.52 45.48
35.90 33.11 30.08 33.78 32.70 32.53 32.63 31.37 31.69 32.57 27.08 20.38 18.85 24.60 32.19 35.02 36.76 36.14 36.54 39.53 39.26 38.65 38.93 39.47 39.62 39.58 39.52 39.25 39.10 39.49 40.23 40.40 40.48 40.81 40.62 40.39 40.07 40.19 40.35 39.98 39.89 40.52 41.00 41.12
36.43 32.63 27.20 29.76 33.77 34.85 33.99 33.84 33.81 29.05 26.08 26.36 26.22 26.55 35.87 34.90 36.81 37.77 37.61 39.90 39.06 39.52 38.87 38.77 38.84 38.32 37.74 37.47 37.64 37.74 38.13 38.84 38.37 38.28 38.31 38.20 38.13 37.88 37.57 37.33 37.46 38.21 38.13 38.63
37.30 30.52 24.03 27.58 31.27 33.97 32.73 33.63 34.86 33.10 28.37 23.75 22.21 25.61 35.72 35.60 36.92 37.90 38.83 39.38 40.22 39.66 39.02 38.88 38.20 37.77 37.30 37.03 36.69 36.88 37.26 37.47 37.65 37.52 37.02 36.60 36.28 36.33 35.99 35.94 36.17 36.61 36.60 36.42
40.88 33.47 29.62 26.00 28.84 32.04 29.31 31.85 33.10 32.95 25.96 25.78 26.62 29.00 32.45 34.60 37.12 38.06 38.66 39.84 40.05 39.58 39.44 38.77 38.10 37.55 37.01 36.56 35.72 36.13 36.76 36.88 36.49 36.31 35.80 35.28 35.13 35.16 35.15 35.26 34.96 35.01 34.98 34.67
37.65 28.46 30.77 32.25 33.29 32.90 32.05 32.46 32.76 31.73 34.73 29.97 33.64 31.57 34.59 36.11 37.93 39.43 39.72 39.91 39.57 39.16 38.89 38.55 37.27 36.31 35.84 35.31 35.17 35.54 35.24 35.24 35.56 35.32 34.89 34.25 34.38 34.22 33.92 33.37 33.31 32.77 32.34 32.60
36.76 25.29 31.11 28.27 33.01 32.39 29.45 33.03 34.57 34.82 34.57 33.73 31.06 31.36 37.02 38.49 38.85 38.82 39.39 40.15 39.66 39.39 39.27 38.23 36.72 35.53 34.88 35.08 34.46 35.17 34.78 34.54 34.62 33.50 32.71 32.73 32.15 31.32 31.13 31.12 31.31 31.26 31.10 30.90
34.15 30.40 26.50 24.62 30.03 28.56 25.77 30.42 32.35 34.00 35.65 35.55 30.93 36.32 36.56 35.15 37.46 38.97 38.76 39.90 39.91 39.33 38.56 37.59 36.75 35.72 35.25 35.01 35.29 34.37 34.20 33.57 32.28 31.00 30.63 30.55 30.60 30.47 30.35 30.63 30.53 30.15 29.90 29.79
30.79 29.42 27.39 25.21 24.50 18.97 30.89 34.66 36.53 34.78 35.06 37.08 35.96 34.74 37.42 37.79 39.89 40.38 40.97 40.26 39.62 39.13 38.27 37.36 36.16 35.33 34.88 34.17 33.91 34.05 32.88 31.36 30.67 30.00 29.53 29.90 29.60 29.09 29.32 29.29 28.98 28.68 29.03 28.19
34.99 30.79 25.74 20.44 11.38 25.04 29.75 30.80 32.11 32.07 33.04 36.54 37.13 36.23 36.81 36.77 37.07 36.34 38.88 40.89 41.23 40.17 39.24 37.46 36.37 35.48 34.19 34.03 33.89 32.13 30.92 30.65 30.15 29.51 29.29 28.89 27.99 26.34 26.61 24.49 27.01 27.38 25.30 24.86
33.20 34.96 30.99 22.21 18.57 17.31 27.81 32.50 35.91 37.19 29.01 35.44 37.73 35.99 36.07 35.56 31.88 34.37 38.58 38.59 37.80 38.16 36.52 35.06 34.83 34.38 33.45 32.29 31.89 31.16 30.02 29.47 28.98 29.07 29.11 28.78 26.90 22.55 21.92 24.87 23.31 24.78 21.93 25.57
31.18 30.07 29.15 29.39 27.48 24.62 30.11 32.17 35.55 26.62 29.22 27.79 33.38 36.65 36.41 36.08 37.91 37.22 37.15 35.48 36.36 35.65 34.86 35.08 34.26 32.62 31.90 31.37 31.21 30.14 28.92 28.39 28.48 27.17 26.76 26.08 24.59 21.42 21.90 21.34 21.08 18.45 16.89 20.09
30.79 29.82 28.97 29.24 27.46 22.50 31.02 31.62 31.41 32.96 31.13 30.89 34.54 35.43 35.64 35.45 34.98 34.60 33.73 33.18 33.40 33.01 33.51 32.52 30.74 30.23 29.83 30.54 30.58 28.68 27.51 27.12 24.07 22.82 22.49 18.54 16.12 19.50 20.87 12.77 12.89 12.64 11.05 12.62
27.34 29.66 27.90 29.60 27.68 31.09 30.76 31.49 33.67 35.25 32.66 32.30 32.85 33.42 35.04 33.71 32.48 32.29 31.77 31.83 32.24 31.60 30.85 30.34 29.38 28.11 26.89 27.78 28.62 26.49 24.82 23.07 18.16 15.56 11.84 11.31 11.07 13.41 13.06 9.86 10.84 12.52 10.68 11.69
28.92 29.54 27.39 27.14 29.44 30.19 32.49 34.02 34.75 34.76 33.27 33.32 32.93 33.21 34.19 32.89 31.67 30.68 30.83 30.46 30.56 30.01 29.17 28.09 27.04 25.73 23.08 21.36 23.26 21.57 20.82 18.09 11.92 10.20 9.68 9.76 8.88 8.52 7.53 13.01 13.87 8.34 8.38 10.96
29.87 30.35 27.67 26.30 29.28 30.76 31.73 32.80 34.21 33.95 32.64 31.90 32.06 32.26 33.60 31.59 30.36 30.66 29.91 29.71 30.05 29.17 27.71 27.66 26.67 24.40 21.39 19.02 16.40 13.80 14.29 12.09 11.34 9.41 11.14 9.53 8.88 4.78 8.94 13.23 10.14 13.40 13.78 14.37
27.37 27.96 27.62 26.11 30.75 31.59 31.77 33.08 33.58 32.13 31.72 31.63 31.93 31.12 30.89 30.54 29.95 28.76 28.63 29.11 28.36 27.29 25.63 24.85 22.75 21.68 18.57 15.26 11.18 5.08 2.01 7.38 8.54 10.03 9.37 7.34 7.32 6.33 10.07 8.82 9.52 18.88 21.73 24.19
MSLP
1014.38 1014.82 1014.12 1014.57 1015.18 1015.67 1015.73 1015.92 1015.92 1015.86 1015.71 1016.21 1016.30 1016.32 1015.90 1016.06 1016.08 1016.34 1016.53 1016.44 1016.37 1016.21 1016.02 1016.14 1016.05 1016.56 1016.87 1017.29 1017.96 1018.35 1019.00 1019.47 1020.11 1020.66 1021.34 1021.67 1021.82 1022.17 1022.37 1022.52 1022.72 1022.87 1023.24 1023.55
1014.65 1013.67 1013.82 1014.58 1014.98 1015.46 1015.55 1015.76 1016.15 1016.45 1016.20 1016.46 1016.66 1016.72 1015.88 1015.96 1015.69 1015.62 1015.94 1016.11 1015.97 1016.13 1016.16 1015.92 1016.26 1016.73 1016.82 1017.32 1017.87 1018.21 1018.47 1018.98 1019.41 1020.06 1020.63 1021.03 1021.40 1021.66 1021.69 1021.95 1022.27 1022.59 1022.78 1023.07
1013.88 1013.60 1013.49 1014.13 1014.72 1015.17 1015.15 1015.53 1016.05 1016.34 1016.67 1016.86 1016.83 1017.09 1016.00 1015.28 1015.12 1015.02 1015.40 1015.36 1015.45 1015.82 1016.38 1016.51 1016.67 1017.07 1017.30 1017.66 1018.10 1018.34 1018.40 1018.56 1018.98 1019.55 1020.08 1020.54 1020.75 1021.27 1021.62 1021.93 1022.09 1022.30 1022.59 1022.81
1013.43 1013.26 1013.37 1014.00 1014.31 1014.60 1014.68 1014.77 1015.50 1016.22 1016.89 1017.39 1017.31 1017.14 1015.76 1014.96 1014.53 1015.00 1015.22 1015.39 1015.75 1016.03 1016.57 1016.99 1017.42 1017.94 1018.04 1018.35 1018.37 1018.53 1018.57 1018.71 1018.78 1019.22 1019.58 1019.90 1020.31 1020.88 1021.19 1021.34 1021.64 1021.75 1022.04 1022.30
1013.10 1013.26 1013.39 1013.78 1013.53 1013.82 1014.37 1014.70 1015.61 1016.56 1017.28 1017.65 1018.16 1017.90 1015.70 1014.93 1014.79 1015.06 1015.22 1015.87 1016.46 1016.73 1017.25 1017.85 1018.33 1018.65 1018.66 1018.67 1018.58 1018.72 1018.78 1018.64 1018.68 1018.87 1019.27 1019.43 1019.75 1019.98 1020.58 1021.18 1021.35 1021.62 1021.71 1022.03
1013.54 1013.29 1013.41 1013.47 1013.64 1013.56 1014.54 1015.17 1016.35 1017.21 1018.04 1018.89 1018.13 1017.87 1016.32 1015.28 1014.52 1015.10 1015.57 1016.45 1016.90 1017.46 1018.15 1018.53 1018.93 1019.11 1019.34 1019.37 1018.95 1019.05 1019.15 1018.92 1018.74 1018.83 1019.07 1019.47 1019.65 1019.81 1020.50 1020.99 1021.23 1021.37 1021.67 1021.78
1013.63 1013.62 1013.76 1013.33 1013.84 1014.32 1014.43 1015.72 1017.83 1018.95 1019.62 1019.25 1018.53 1018.17 1015.99 1014.57 1014.11 1014.60 1015.57 1016.56 1017.38 1017.84 1018.61 1018.90 1019.20 1019.62 1019.90 1019.83 1019.65 1019.58 1019.49 1019.58 1019.14 1019.12 1019.27 1019.51 1019.90 1019.95 1020.36 1020.98 1021.41 1021.50 1021.78 1022.07
1013.64 1014.36 1013.86 1013.38 1013.35 1013.63 1014.59 1015.15 1016.98 1018.77 1020.04 1019.83 1019.01 1017.71 1015.43 1014.12 1014.10 1014.57 1015.68 1016.64 1017.70 1018.52 1019.01 1019.75 1019.61 1020.22 1020.68 1020.33 1020.03 1020.04 1020.11 1020.23 1019.90 1019.91 1020.01 1020.06 1020.34 1020.66 1021.10 1021.48 1021.82 1022.31 1022.31 1022.49
1012.56 1013.46 1013.69 1013.81 1013.58 1013.49 1014.63 1015.03 1015.77 1018.05 1020.45 1019.85 1018.52 1017.04 1015.38 1014.83 1015.17 1015.39 1016.09 1017.28 1018.24 1019.03 1019.66 1020.20 1020.28 1020.55 1020.96 1021.02 1020.58 1020.56 1020.65 1020.86 1020.50 1020.56 1020.52 1020.78 1020.91 1021.19 1021.67 1022.03 1022.39 1022.98 1023.04 1023.01
1011.32 1013.61 1014.38 1014.28 1013.98 1013.87 1013.72 1014.19 1015.95 1017.35 1019.47 1019.62 1018.35 1017.16 1015.33 1015.09 1015.22 1015.86 1016.68 1017.47 1018.54 1019.05 1019.94 1020.54 1020.73 1021.03 1020.96 1021.11 1021.20 1021.11 1021.22 1021.45 1021.54 1021.22 1021.39 1021.62 1021.86 1022.11 1022.43 1022.81 1023.53 1023.59 1023.77 1023.69
1011.18 1012.57 1015.24 1015.04 1014.40 1013.88 1014.38 1014.26 1014.97 1015.91 1017.43 1018.10 1018.06 1016.27 1014.06 1013.50 1014.16 1014.98 1016.14 1017.46 1018.34 1018.98 1019.88 1020.49 1020.90 1021.32 1021.47 1021.50 1021.82 1021.75 1021.80 1022.05 1022.31 1022.28 1022.40 1022.60 1023.05 1023.10 1023.46 1023.89 1024.20 1024.50 1024.50 1024.57
1011.56 1013.27 1015.01 1014.99 1014.47 1014.17 1013.74 1013.60 1014.05 1015.21 1016.65 1017.20 1016.82 1015.07 1013.58 1013.23 1013.63 1014.33 1015.74 1017.15 1018.26 1018.96 1019.86 1020.54 1020.87 1021.32 1021.75 1021.95 1022.21 1022.18 1022.34 1022.56 1022.93 1023.03 1023.23 1023.58 1023.91 1024.06 1024.39 1024.64 1024.86 1024.86 1024.98 1025.04
1011.14 1012.92 1015.05 1015.55 1015.30 1014.51 1014.08 1013.68 1013.66 1014.15 1015.22 1016.15 1016.44 1014.51 1013.39 1013.09 1013.72 1014.46 1015.56 1016.80 1017.86 1018.84 1019.72 1020.48 1020.96 1021.43 1021.90 1022.05 1022.40 1022.46 1022.74 1023.04 1023.28 1023.59 1023.99 1024.38 1024.63 1024.92 1025.00 1025.17 1025.34 1025.20 1025.28 1025.45
1010.53 1012.24 1012.92 1013.65 1013.37 1013.68 1014.26 1013.63 1013.60 1013.85 1014.86 1014.84 1014.27 1013.61 1013.61 1013.58 1013.86 1014.74 1015.66 1016.62 1017.68 1018.62 1019.39 1020.18 1020.86 1021.25 1021.92 1022.17 1022.61 1022.78 1023.10 1023.43 1023.68 1024.14 1024.42 1024.89 1025.23 1025.36 1025.48 1025.69 1025.85 1025.93 1025.99 1026.05
1010.94 1012.38 1013.26 1013.54 1013.30 1012.99 1012.45 1012.71 1013.03 1013.22 1012.37 1013.26 1012.11 1012.83 1012.54 1012.97 1013.52 1014.26 1015.31 1016.53 1017.59 1018.46 1019.38 1020.00 1020.53 1021.32 1021.88 1022.38 1022.76 1023.17 1023.56 1023.85 1023.98 1024.38 1024.84 1025.28 1025.55 1025.80 1025.86 1025.98 1026.25 1026.42 1026.48 1026.53
1011.82 1012.81 1013.50 1014.73 1014.44 1013.54 1013.11 1012.22 1012.00 1011.91 1011.44 1012.02 1011.74 1011.76 1011.55 1012.02 1013.42 1014.43 1015.01 1015.95 1016.78 1017.64 1018.52 1019.38 1020.30 1021.01 1021.78 1022.33 1022.81 1023.25 1023.77 1023.97 1024.07 1024.63 1025.27 1025.60 1025.90 1025.97 1026.26 1026.50 1026.67 1026.69 1026.64 1026.65
1012.18 1013.26 1014.40 1015.25 1015.05 1014.32 1013.61 1011.38 1011.33 1010.99 1010.58 1010.44 1010.99 1009.92 1011.28 1012.02 1012.83 1013.38 1014.22 1015.05 1015.79 1016.78 1017.93 1018.94 1019.80 1020.60 1021.40 1022.07 1022.60 1023.20 1023.82 1024.22 1024.64 1025.31 1025.84 1026.05 1026.17 1026.38 1026.61 1026.68 1026.79 1026.77 1026.79 1026.86
1012.34 1013.43 1014.49 1015.86 1015.82 1014.82 1010.98 1010.11 1010.05 1010.33 1009.87 1009.93 1009.78 1010.19 1010.75 1011.16 1011.46 1011.99 1012.81 1013.65 1015.06 1016.19 1017.25 1018.33 1019.34 1020.47 1021.34 1022.01 1022.59 1023.20 1023.81 1024.38 1024.98 1025.63 1026.08 1026.19 1026.37 1026.62 1026.72 1026.74 1026.81 1026.90 1026.89 1026.97
1011.85 1012.78 1014.62 1015.63 1015.83 1013.51 1011.03 1010.78 1010.53 1010.40 1009.44 1009.67 1009.75 1010.59 1010.90 1011.31 1011.91 1012.32 1012.79 1013.62 1014.02 1015.01 1016.26 1017.58 1018.83 1019.99 1021.16 1021.90 1022.58 1023.31 1024.11 1024.78 1025.32 1025.78 1026.14 1026.37 1026.47 1026.69 1026.82 1026.97 1026.96 1026.99 1027.15 1027.33
1012.31 1012.00 1013.06 1014.64 1014.66 1013.10 1010.22 1009.60 1009.56 1010.14 1009.47 1009.23 1009.72 1010.52 1011.09 1011.73 1012.50 1012.11 1012.71 1013.33 1014.30 1015.30 1016.36 1017.58 1018.92 1020.05 1021.07 1021.97 1022.67 1023.57 1024.45 1024.90 1025.31 1025.81 1026.17 1026.64 1027.00 1027.02 1027.20 1027.16 1027.23 1027.45 1027.47 1027.51
1012.67 1012.78 1012.79 1013.71 1014.03 1012.10 1010.50 1010.04 1009.93 1010.91 1009.90 1009.43 1009.67 1009.85 1010.64 1011.27 1011.27 1011.93 1012.81 1013.86 1014.55 1015.44 1016.64 1017.88 1018.94 1019.94 1021.03 1021.94 1022.68 1023.67 1024.41 1025.08 1025.54 1026.05 1026.58 1026.82 1027.17 1027.26 1027.18 1027.31 1027.51 1027.44 1027.47 1027.43
1011.38 1012.07 1012.59 1013.26 1013.17 1011.71 1010.27 1010.63 1010.28 1010.01 1010.08 1010.25 1010.29 1010.48 1011.02 1011.56 1012.21 1012.96 1013.65 1014.63 1015.41 1016.19 1017.34 1018.23 1019.38 1020.60 1021.53 1022.26 1022.89 1024.10 1024.79 1025.13 1025.82 1026.42 1026.75 1026.96 1027.15 1027.46 1027.58 1027.74 1027.76 1027.67 1027.63 1027.60
1011.78 1010.99 1011.28 1011.57 1010.76 1010.05 1010.26 1009.86 1009.92 1010.15 1010.37 1010.74 1011.04 1011.37 1011.63 1012.41 1013.33 1014.09 1014.92 1015.63 1016.14 1016.87 1017.89 1018.74 1019.64 1020.96 1022.01 1022.59 1023.18 1024.22 1025.15 1025.48 1026.05 1026.55 1027.15 1027.21 1027.56 1027.84 1027.92 1027.92 1027.99 1028.02 1027.47 1027.43
1011.52 1011.20 1011.20 1011.38 1011.06 1010.51 1010.38 1010.44 1010.66 1010.74 1010.94 1011.22 1011.45 1011.89 1012.30 1013.03 1013.95 1014.82 1015.62 1016.29 1016.89 1017.64 1018.34 1019.24 1020.36 1021.57 1022.73 1023.14 1023.91 1024.34 1025.10 1025.59 1026.27 1027.02 1027.58 1027.67 1028.09 1028.12 1028.00 1027.93 1027.84 1027.93 1027.78 1027.27
1011.10 1011.26 1011.42 1011.54 1011.13 1010.69 1010.67 1011.03 1011.18 1011.47 1011.65 1011.95 1012.25 1012.52 1012.84 1013.45 1014.44 1015.11 1015.92 1016.61 1017.23 1018.02 1018.87 1019.61 1020.54 1021.59 1022.70 1023.67 1024.59 1025.17 1025.64 1026.14 1026.94 1027.42 1027.78 1028.10 1028.14 1028.22 1028.16 1027.93 1027.51 1026.99 1026.71 1026.62
1010.92 1010.74 1010.81 1010.69 1010.39 1010.54 1010.65 1010.76 1011.26 1011.91 1012.13 1012.35 1012.75 1013.20 1013.62 1014.05 1014.67 1015.43 1016.23 1016.84 1017.48 1018.20 1019.07 1020.01 1020.87 1021.82 1022.91 1023.93 1025.02 1025.86 1026.15 1026.37 1026.88 1027.69 1028.05 1028.10 1028.09 1028.11 1028.03 1027.91 1027.12 1026.68 1026.27 1026.07
Wind_Speed
4 5 18 9 6 6 4 6 8 2 4 5 8 6 10 7 5 8 9 8 8 10 10 9 8 8 8 7 9 13 13 12 9 6 7 6 7 5 5 4 6 6 5 7
5 17 13 9 8 10 5 5 6 2 1 5 2 11 9 7 8 9 11 9 9 5 7 8 8 6 7 8 7 8 12 13 11 9 7 4 5 3 6 5 6 6 7 6
8 5 9 13 6 12 6 6 6 7 3 1 3 8 6 9 6 7 9 8 6 10 8 5 7 6 5 5 3 3 6 11 12 12 7 3 4 2 3 4 4 6 7 7
5 4 16 8 12 9 7 4 8 12 6 4 5 7 6 7 9 8 8 8 8 8 6 6 7 6 6 3 4 2 2 3 4 9 11 12 7 6 4 4 5 6 8 8
6 8 10 7 15 8 5 6 8 5 5 6 2 3 10 2 4 8 10 6 7 8 9 8 7 6 5 4 4 3 2 1 1 3 7 8 7 6 4 3 5 5 5 6
3 1 4 7 2 7 8 8 8 5 4 0 6 6 7 5 7 4 4 7 7 8 8 8 7 7 6 5 6 3 1 1 2 4 5 7 7 6 5 4 4 3 2 3
2 2 2 3 7 4 7 6 3 3 1 7 1 4 10 5 4 8 11 9 9 8 7 7 8 7 5 6 5 5 6 5 5 7 8 6 4 5 6 5 3 3 3 2
6 4 7 4 7 9 6 8 8 8 5 5 2 8 8 4 1 10 9 9 8 8 7 6 7 6 5 6 7 7 7 6 7 7 8 7 7 5 6 5 5 4 4 4
7 3 2 2 1 8 6 4 5 8 3 5 5 6 7 3 5 7 10 10 9 8 7 7 7 7 6 6 7 7 7 6 7 7 7 8 8 9 7 10 9 5 5 5
4 6 3 2 1 3 5 8 4 3 5 3 4 4 6 8 11 8 9 9 8 7 8 7 6 6 5 6 6 8 8 7 7 9 9 9 9 10 10 10 8 8 6 7
4 5 1 2 6 9 4 4 2 6 6 7 3 8 8 8 13 16 10 11 11 9 8 7 6 6 6 6 6 7 8 8 9 8 8 10 9 9 9 8 7 6 7 7
2 6 4 6 3 3 2 6 5 6 6 2 3 7 2 2 9 14 12 11 8 8 8 7 7 7 7 7 6 7 7 9 7 7 9 9 8 8 9 8 6 6 7 6
8 1 5 5 3 2 6 4 4 5 4 6 7 8 3 2 6 7 13 11 11 11 9 8 7 7 7 7 6 7 7 8 7 8 8 8 7 7 7 7 6 6 6 6
8 4 8 10 8 8 7 7 6 6 4 5 8 4 4 6 8 8 9 11 11 10 11 9 8 8 7 7 7 7 7 7 7 7 8 8 6 6 6 6 6 6 6 6
6 8 5 3 1 4 7 12 12 9 19 9 18 10 7 10 11 13 10 11 13 13 12 11 10 9 8 8 7 7 6 6 7 9 8 7 6 5 6 6 6 6 6 6
2 2 5 1 3 3 1 9 17 20 19 13 5 7 7 7 8 9 13 15 15 15 14 12 11 10 10 9 8 8 7 7 8 8 7 6 5 6 6 6 5 5 5 5
8 7 4 6 4 4 5 14 16 17 14 23 15 20 7 5 11 14 14 17 17 16 15 15 14 12 10 10 10 9 8 7 8 7 6 6 5 6 5 5 5 5 6 5
8 7 3 4 2 4 11 8 15 19 10 19 10 6 11 9 14 12 11 18 16 16 16 15 13 11 9 7 8 9 8 8 7 7 5 5 5 5 4 5 5 4 3 5
3 6 4 7 5 6 7 7 9 12 15 9 19 6 5 5 5 3 7 11 18 17 15 14 12 12 9 11 10 10 8 7 7 6 6 5 4 4 4 4 4 3 2 1
2 2 5 3 7 12 2 6 7 8 17 10 12 11 9 8 7 7 9 8 9 13 14 15 13 12 11 8 9 10 8 7 6 6 5 5 3 3 2 1 3 1 1 3
6 0 13 9 6 10 5 5 4 9 9 2 3 9 11 12 6 6 9 5 10 14 15 15 14 13 10 9 10 10 8 7 6 5 4 4 3 2 2 1 1 2 3 2
12 11 7 5 10 15 7 3 13 5 2 3 1 2 8 5 6 7 8 11 13 16 15 13 13 10 7 8 10 9 8 6 5 4 4 3 2 2 2 1 3 2 2 3
3 5 7 10 7 2 4 2 3 2 4 3 3 1 6 8 5 7 8 10 11 13 12 10 13 11 5 6 8 10 7 7 5 5 4 2 2 2 1 1 3 3 3 2
2 2 3 4 4 1 4 4 2 3 3 3 2 4 7 7 9 7 9 9 11 10 12 9 12 11 7 4 5 5 7 6 6 5 3 1 3 2 3 2 1 1 2 3
4 7 5 3 4 3 1 3 4 4 4 3 2 4 7 8 8 9 8 9 9 10 9 11 12 10 9 7 6 4 5 6 5 5 3 3 2 2 1 1 2 1 3 3
5 7 5 5 5 3 1 3 6 7 5 5 5 3 3 6 9 7 8 9 10 11 9 9 8 9 9 8 7 5 3 5 6 5 3 2 2 1 1 1 2 6 6 8
Wind_Direction
204 160 202 192 146 232 199 202 182 166 163 134 201 224 221 218 184 193 212 231 219 192 219 211 198 179 166 167 163 168 168 176 166 167 181 190 199 196 198 198 197 195 182 190
171 213 182 169 188 231 208 214 199 3 99 133 186 250 245 210 213 192 199 214 217 229 219 202 193 187 160 154 183 170 181 174 177 179 187 175 175 187 197 193 197 196 188 189
182 203 155 176 192 215 195 186 198 164 166 82 97 292 235 240 223 189 217 206 196 203 195 153 143 139 119 112 90 170 180 182 183 184 172 160 131 146 164 188 193 203 205 203
190 218 184 169 197 167 202 198 158 141 124 197 143 264 282 236 223 206 212 186 165 126 111 109 106 89 95 65 50 31 42 113 169 176 180 180 178 185 181 177 192 198 202 206
189 173 168 185 197 165 190 140 149 136 107 100 226 100 269 111 182 207 198 178 133 119 120 101 99 92 65 57 35 337 323 359 85 137 178 191 180 186 165 177 185 192 195 199
151 204 141 181 100 149 137 91 43 49 82 66 223 151 276 213 193 183 136 152 145 114 113 111 108 91 62 35 48 23 8 359 57 105 160 177 180 169 152 182 206 184 160 182
91 70 282 156 84 25 111 107 54 23 7 220 333 156 242 252 179 187 159 151 147 129 121 113 98 82 71 61 50 61 71 52 69 84 83 97 124 150 168 120 105 108 125 176
151 203 180 184 167 174 167 150 146 174 182 221 12 222 252 226 195 138 140 133 118 115 115 117 115 104 82 78 75 66 66 69 68 71 73 76 76 72 77 96 97 73 66 53
149 181 62 63 19 154 207 172 154 102 15 76 214 280 301 121 83 120 138 135 139 137 128 122 112 117 107 77 76 80 74 61 60 69 76 66 65 71 74 69 68 64 53 51
182 107 22 323 12 352 185 153 103 14 130 236 269 266 232 205 187 170 164 154 152 135 131 128 121 116 100 91 81 75 69 70 58 64 62 66 68 68 69 67 60 59 52 48
124 98 271 129 205 173 159 183 159 119 141 163 162 253 222 212 194 185 176 170 160 149 148 139 129 117 106 91 81 81 75 76 69 67 68 69 63 66 69 70 59 56 55 46
123 113 137 209 277 271 321 196 152 166 204 218 155 264 220 311 208 171 170 161 150 141 146 141 137 127 110 104 95 90 83 86 80 75 77 74 72 70 74 70 63 59 62 49
176 111 92 14 346 308 221 223 175 108 82 195 140 257 326 341 108 142 147 153 152 148 145 143 134 132 130 118 110 101 95 96 88 85 83 73 71 74 75 72 60 56 61 52
112 139 158 181 192 140 198 190 185 138 131 172 223 193 228 208 171 156 149 149 148 150 152 150 146 139 136 126 122 113 105 103 101 93 89 85 73 72 71 66 59 54 49 51
127 181 154 13 16 184 166 181 179 192 220 173 234 191 218 203 191 179 156 148 153 161 164 162 151 148 138 132 125 111 107 106 106 96 90 86 81 71 69 65 60 57 49 46
75 224 118 36 356 58 61 216 192 207 224 232 106 251 193 190 119 163 172 169 174 174 172 161 155 151 154 149 141 129 124 117 112 100 98 98 94 85 73 67 66 65 56 40
147 135 123 228 153 68 328 215 195 214 213 209 214 229 168 178 185 184 176 184 184 176 168 166 167 161 158 154 148 138 134 120 102 105 107 103 99 88 72 70 60 46 41 23
145 120 83 135 85 177 248 170 194 207 213 222 238 159 181 187 200 195 190 181 174 172 168 165 160 156 151 141 130 128 126 120 120 118 114 104 98 93 77 70 59 40 44 21
175 130 130 143 190 291 255 201 166 177 242 208 225 184 183 117 85 250 176 184 182 178 166 160 153 147 144 148 143 133 127 127 128 134 131 130 116 104 81 63 39 14 16 312
37 100 155 126 165 211 314 192 154 105 265 194 188 181 167 140 181 221 183 152 139 147 150 147 146 142 145 147 138 134 140 139 140 145 137 122 111 118 97 60 5 326 341 285
171 16 194 205 232 277 236 161 133 151 256 272 236 195 169 190 211 147 125 107 140 144 143 141 144 150 152 146 139 137 139 143 139 126 128 120 95 90 50 28 333 294 305 283
176 174 181 178 213 252 165 62 162 210 144 172 145 174 173 128 103 113 114 128 135 135 139 139 135 137 134 139 138 143 151 143 132 133 122 95 48 16 34 65 320 317 328 331
184 195 169 184 208 227 204 75 111 148 138 166 140 95 127 123 133 134 140 142 144 143 139 135 135 131 128 145 150 150 157 143 129 116 98 75 16 353 13 70 327 341 9 13
304 198 155 87 286 30 139 62 84 52 85 95 110 142 145 144 150 143 149 148 145 147 146 138 136 144 149 137 125 122 137 125 122 124 127 114 94 33 4 347 358 11 337 339
176 137 161 351 307 6 198 209 161 126 123 129 118 173 176 147 167 159 155 159 157 152 146 154 159 157 153 140 125 117 125 129 127 122 133 111 128 123 16 253 220 227 261 204
184 169 170 205 196 130 183 153 160 166 194 190 162 161 174 170 167 150 166 170 164 164 156 156 148 149 157 147 140 134 132 143 135 135 147 166 142 45 35 25 344 336 317 318